Date,TemperatureHighF,TemperatureAvgF,TemperatureLowF,DewpointHighF,DewpointAvgF,DewpointLowF,HumidityHigh,HumidityAvg,HumidityLow,PressureMaxIn,PressureMinIn,WindSpeedMaxMPH,WindSpeedAvgMPH,GustSpeedMaxMPH,PrecipitationSumIn
2013-9-1,84,74,67,75,69,63,91,85,72,29.81,29.74,10,2,15,0.02
2013-9-2,85,77,71,75,70,63,91,79,64,29.84,29.75,11,3,15,0.00
2013-9-3,75,68,61,63,60,57,90,76,59,30.04,29.84,14,1,18,0.00
2013-9-4,80,69,57,65,60,54,92,77,54,30.13,30.04,8,1,11,0.00
2013-9-5,85,73,61,68,63,58,91,73,48,30.16,30.09,7,1,10,0.00
2013-9-6,81,69,58,61,56,52,84,65,44,30.20,30.08,8,1,12,0.00
2013-9-7,85,73,58,70,63,55,90,74,57,30.08,29.93,12,2,14,0.00
2013-9-8,89,78,69,73,69,66,90,76,52,29.95,29.89,7,1,9,0.00
2013-9-9,90,79,68,75,71,65,90,76,55,30.01,29.92,14,2,15,0.00
2013-9-10,92,81,74,79,74,71,90,79,62,30.10,29.98,12,3,14,0.00
2013-9-11,89,80,72,76,72,69,90,80,60,30.12,29.99,9,2,14,0.00
2013-9-12,78,74,64,73,70,61,90,87,73,29.99,29.84,22,4,24,0.33
2013-9-13,66,61,54,63,52,47,90,74,56,30.07,29.87,13,2,18,0.00
2013-9-14,70,58,47,52,48,45,91,71,47,30.17,30.07,7,1,9,0.00
2013-9-15,78,64,49,62,55,46,91,75,54,30.13,30.01,12,2,19,0.00
2013-9-16,71,64,60,62,58,54,92,83,68,30.25,30.04,7,1,12,0.10
2013-9-17,75,63,52,60,55,50,91,77,54,30.30,30.14,9,2,13,0.00
2013-9-18,76,66,59,68,62,55,90,85,72,30.15,30.05,8,1,11,0.00
2013-9-19,78,70,65,72,66,61,91,87,80,30.08,29.95,11,2,14,0.27
2013-9-20,85,73,68,73,68,64,90,83,63,29.98,29.76,15,3,21,2.01
2013-9-21,72,66,60,65,59,52,92,80,59,29.85,29.67,15,2,20,1.18
2013-9-22,67,59,50,53,50,48,91,74,54,30.00,29.85,10,1,12,0.00
2013-9-23,69,58,48,54,50,45,91,76,54,30.09,30.00,9,1,11,0.00
2013-9-24,75,60,48,63,54,45,91,81,64,30.07,29.89,8,1,10,0.00
2013-9-25,73,63,56,62,56,53,91,80,58,29.91,29.85,9,1,11,0.00
2013-9-26,78,64,51,64,57,48,92,79,59,30.04,29.90,6,0,9,0.00
2013-9-27,79,67,54,63,56,52,91,72,44,30.15,30.04,7,0,8,0.00
2013-9-28,80,68,54,63,58,50,91,73,50,30.17,30.04,8,1,11,0.00
2013-9-29,70,64,61,62,60,57,90,86,74,30.04,29.99,13,3,16,0.01
2013-9-30,74,66,61,65,61,58,92,85,72,30.02,29.93,8,1,13,0.00